{"data":{"norad_id":59673,"intl_designator":"2024-084V","name":"STARLINK-31871","alt_names":[],"object_type":"PAYLOAD","status":"ACTIVE","operator":null,"country":"US","launch_date":"2024-05-06","launch_site_code":"AFETR","launch_vehicle":null,"mission":null,"orbit_class":"UNKNOWN","rcs_meters":null,"size_class":null,"mass_kg":null,"dimensions":null,"purposes":["comms"],"wikipedia_slug":null,"has_3d_model":false,"image_url":null,"decayed_at":null,"tle_current":{"epoch":"2026-05-24T22:14:57.412896Z","epoch_age_seconds":77963,"freshness":"FRESH","line1":"1 59673U 24084V   26144.92705339  .00002006  00000+0  82412-4 0  9991","line2":"2 59673  43.0008 331.1573 0001951 264.3820  95.6810 15.27580158116033","mean_motion":15.27580158,"eccentricity":0.0001951,"inclination_deg":43.0008,"raan_deg":331.1573,"arg_perigee_deg":264.382,"mean_anomaly_deg":95.681,"bstar":8.2412e-5,"rev_number":11603,"period_min":94.266738963495,"perigee_km":481.71000561582,"apogee_km":484.38724024589,"semimajor_km":6861.1856229309,"source":"CELESTRAK","updated_at":"2026-05-25T13:38:19.021784Z"}}}